Tracking 30685 objects as of 17-Jun-2025
HD Live streaming from Space Station
objects crossing your sky now

NOAA 16 DEB

Track NOAA 16 DEB now!
10-day predictions


NORAD ID: 41531
Int'l Code: 2000-055NF
Perigee: 823.0 km
Apogee: 867.3 km
Inclination: 98.7 °
Period: 101.7 minutes
Semi major axis: 7216 km
RCS: Unknown
Launch date: September 21, 2000
Source: United States (US)
Launch site: AIR FORCE WESTERN TEST RANGE (AFWTR)

Note: This is SATELLITE DEBRIS
Your satellite tracking list
Your tracking list is empty




NASA's NSSDC Master Catalog

Two Line Element Set (TLE):
1 41531U 00055NF  25167.82515370  .00001992  00000-0  10218-2 0  9991
2 41531  98.6596 196.2654 0030697 183.3913 176.7058 14.16261418471421
Source of the keplerian elements: AFSPC